[[{"header":{"parameterUnit":"m.s-1","parameterCategory":1,"la1":30.2991,"la2":30.254,"lo1":-89.0895,"lo2":-89.0444,"dy":0.0017,"dx":0.0017,"nx":28,"ny":28,"refTime":"2024-09-03T21:00:00:Z","depth":0,"parameterNumber":2,"parameterNumberName":"U-component_of_WINDS"},"data":[0,0,0,0,0,0,0,0,0,0,0,0,0,0,0,0,0,0,0,0,0,0,0,0,0,0,0,0,0,0,0,0,0,0,0,0,0,0,0,0,0,0,0,0,0,0,0,0,0,0,0,0,0,0,0,0,0,0,-8.2214,-8.2216,0,-8.2371,-8.2373,-8.2374,-8.2281,-8.2277,-8.2272,-8.2268,-8.2428,-8.2436,-8.2445,0,0,0,0,0,0,0,0,0,0,0,0,0,-8.1834,-8.1841,-8.2214,-8.2216,-8.2218,-8.2371,-8.2373,-8.2375,-8.2282,-8.2276,-8.2271,-8.2266,-8.2425,-8.2435,-8.2445,0,0,0,0,0,0,0,0,0,0,0,0,0,-8.1995,-8.1843,-8.2213,-8.219,-8.2189,-8.237,-8.2373,-8.2375,-8.2283,-8.2276,-8.227,-8.2263,-8.2422,-8.2434,-8.2447,-8.266,0,0,-8.2485,-8.2491,0,0,0,0,0,0,0,0,-8.1986,-8.2009,-8.2191,-8.2192,-8.2191,-8.23,-8.2297,-8.2471,-8.2285,-8.2247,-8.2268,-8.226,-8.2391,-8.2405,-8.245,-8.2667,-8.2674,-8.2487,-8.2494,-8.25,-8.2503,0,0,0,0,0,0,0,-8.1975,-8.2002,-8.2276,-8.2194,-8.2194,-8.2171,-8.2187,-8.233,-8.2355,-8.225,-8.2244,-8.2264,-8.2389,-8.2438,-8.2453,-8.2676,-8.2486,-8.2497,-8.2505,-8.251,-8.3076,-8.3083,0,0,0,0,0,0,-8.1966,-8.1993,-8.2271,-8.2281,-8.207,-8.2184,-8.2201,-8.2272,-8.2353,-8.2359,-8.2269,-8.2259,-8.2419,-8.2438,-8.2458,-8.2711,-8.25,-8.2511,-8.2519,-8.3068,-8.3077,-8.3085,0,0,0,0,0,0,-8.1958,-8.1991,-8.2264,-8.2135,-8.2168,-8.2197,-8.2277,-8.2278,-8.2326,-8.2367,-8.2371,-8.2314,-8.2415,-8.244,-8.261,-8.2715,-8.2517,-8.2529,-8.306,-8.3071,-8.3081,-8.322,0,0,0,0,0,0,-8.1948,-8.1989,-8.207,-8.2138,-8.2176,-8.2414,-8.2284,-8.2286,-8.2348,-8.2336,-8.241,-8.2416,-8.2411,-8.2592,-8.2623,-8.2729,-8.2539,-8.305,-8.3065,-8.3078,-8.3206,-8.3235,-8.3259,0,0,0,0,0,-8.1934,-8.2103,-8.2075,-8.2109,-8.2278,-8.242,-8.2442,-8.2433,-8.2357,-8.2439,-8.2466,-8.2414,-8.27,-8.261,-8.2644,-8.2756,-8.3043,-8.3061,-8.3077,-8.3194,-8.3229,-8.3259,0,0,0,0,0,0,-8.2046,-8.2111,-8.2081,-8.2276,-8.2344,-8.2404,-8.2507,-8.247,-8.256,-8.2545,-8.253,-8.2548,-8.2725,-8.2758,-8.2656,-8.2966,-8.286,-8.2884,-8.2937,-8.2971,-8.2997,-8.2984,-8.2549,0,0,0,0,0,-8.2094,-8.2205,-8.2256,-8.2423,-8.2459,-8.2478,-8.254,-8.2527,-8.2596,-8.2624,-8.2663,-8.2732,-8.2837,-8.2906,-8.3005,-8.3212,-8.3226,-8.3306,-8.3332,-8.3354,-8.3374,-8.3485,-8.3521,-8.314,-8.314,-8.314,0,0,-8.2193,-8.2242,-8.2313,-8.2447,-8.2498,-8.2612,-8.2502,-8.2628,-8.2713,-8.2643,-8.2805,-8.2837,-8.2913,-8.3102,-8.3187,-8.3134,-8.3483,-8.3375,-8.3392,-8.3401,-8.3506,-8.3542,-8.3574,-8.3152,-8.315,-8.3148,0,0,-8.2431,-8.2481,-8.2625,-8.2679,-8.2757,-8.2769,-8.2804,-8.2871,-8.2889,-8.3052,-8.3002,-8.3103,-8.3285,-8.3341,-8.3393,-8.3655,-8.361,-8.3688,-8.3825,-8.3933,-8.3963,-8.3989,-8.4081,-8.4114,-8.3709,-8.3709,-8.371,0,-8.2543,-8.2714,-8.2704,-8.2834,-8.2894,-8.2838,-8.2984,-8.3036,-8.3143,-8.3186,-8.3127,-8.3354,-8.3401,-8.3602,-8.3666,-8.3711,-8.375,-8.3678,-8.396,-8.3986,-8.4011,-8.4098,-8.4132,-8.3718,-8.3717,-8.3716,-8.3715,0,-8.2848,-8.2968,-8.3075,-8.318,-8.3253,-8.3391,-8.3401,-8.3476,-8.3459,-8.3477,-8.3644,-8.3699,-8.3808,-8.3856,-8.384,-8.4055,-8.402,-8.3961,-8.3853,-8.4056,-8.4137,-8.4171,-8.3731,-8.3727,-8.3725,-8.3723,0,0,-8.3158,-8.3257,-8.3296,-8.3343,-8.3427,-8.3519,-8.3655,-8.3761,-8.3825,-8.3903,-8.4015,-8.4171,-8.4117,-8.4177,-8.4167,-8.4263,-8.4465,-8.4192,-8.4193,-8.4238,-8.4704,-8.4745,-8.4784,-8.4437,-8.4444,-8.4449,-8.4696,0,-8.3399,-8.3635,-8.3631,-8.385,-8.396,-8.3909,-8.4027,-8.4091,-8.4113,-8.4209,-8.4233,-8.4343,-8.4265,-8.43,-8.4393,-8.4421,-8.4557,-8.4403,-8.454,-8.4545,-8.4519,-8.4827,-8.4871,-8.5101,-8.4728,-8.4734,-8.4738,0,-8.3711,-8.3799,-8.4029,-8.4096,-8.4142,-8.4248,-8.4346,-8.444,-8.4512,-8.4521,-8.4589,-8.4564,-8.4702,-8.4593,-8.4782,-8.4677,-8.4733,-8.4756,-8.4765,-8.4774,-8.4651,-8.4842,-8.5175,-8.5209,-8.4788,-8.4784,-8.4781,0,-8.3911,-8.4087,-8.4246,-8.4289,-8.4372,-8.4448,-8.4486,-8.4552,-8.4617,-8.4703,-8.4745,-8.4847,-8.4901,-8.4981,-8.4984,-8.4905,-8.5175,-8.5066,-8.5185,-8.5185,-8.524,-8.5236,-8.5584,-8.5283,-8.5282,-8.5282,-8.5281,0,-8.4179,-8.4321,-8.4337,-8.4435,-8.4593,-8.4588,-8.4744,-8.4776,-8.4835,-8.4938,-8.4902,-8.5,-8.5,-8.51,-8.5105,-8.5259,-8.5285,-8.5296,-8.5294,-8.5297,-8.5295,-8.5331,-8.5314,-8.5291,-8.5289,-8.5287,-8.5286,0,-8.4426,-8.4443,-8.4614,-8.468,-8.47,-8.4814,-8.487,-8.4963,-8.4983,-8.5114,-8.5145,-8.5175,-8.529,-8.5303,-8.5438,-8.5441,-8.5627,-8.561,-8.5602,-8.5598,-8.5715,-8.5703,-8.6095,-8.6145,-8.5815,-8.5818,-8.582,0,-8.4594,-8.4703,-8.4781,-8.4848,-8.489,-8.4999,-8.5065,-8.5065,-8.5135,-8.5227,-8.5309,-8.5422,-8.5511,-8.5699,-8.5732,-8.5835,-8.5819,-8.595,-8.5834,-8.5833,-8.5817,-8.5809,-8.5819,-8.5971,-8.5974,-8.5977,-8.598,0,-8.489,-8.4894,-8.499,-8.5092,-8.5172,-8.5251,-8.5325,-8.5382,-8.5391,-8.5473,-8.5591,-8.5661,-8.5799,-8.591,-8.6012,-8.6052,-8.6017,-8.6017,-8.6049,-8.605,-8.604,-8.6045,-8.566,-8.6006,-8.6004,-8.6002,-8.6,-8.5999,-8.5101,-8.5194,-8.5264,-8.5374,-8.543,-8.5501,-8.5592,-8.5623,-8.5722,-8.5834,-8.5829,-8.5959,-8.6029,-8.6162,-8.621,-8.6311,-8.6268,-8.6315,-8.6326,-8.6337,-8.6348,-8.6028,-8.633,-8.633,-8.6329,-8.6328,-8.6328,0,-8.5392,-8.5435,-8.5536,-8.5641,-8.5728,-8.569,-8.5771,-8.5845,-8.596,-8.6029,-8.6118,-8.6254,-8.6363,-8.6407,-8.6513,-8.6586,-8.6573,-8.6614,-8.6606,-8.6616,-8.6382,-8.6342,-8.6622,-8.6622,-8.6622,-8.6622,-8.6622,-8.6622,-8.5553,-8.5709,-8.5721,-8.5905,-8.5947,-8.6074,-8.6123,-8.6188,-8.6243,-8.6396,-8.6487,-8.6515,-8.6574,-8.6685,-8.6783,-8.6793,-8.6832,-8.6879,-8.6882,-8.6662,-8.6632,-8.6604,-8.6566,-8.6889,-8.6889,-8.7107,-8.7109,-8.7111]},{"header":{"parameterUnit":"m.s-1","parameterCategory":1,"la1":30.2991,"la2":30.254,"lo1":-89.0895,"lo2":-89.0444,"dy":0.0017,"dx":0.0017,"nx":28,"ny":28,"refTime":"2024-09-03T21:00:00:Z","depth":0,"parameterNumber":3,"parameterNumberName":"V-component_of_WINDS"},"data":[0,0,0,0,0,0,0,0,0,0,0,0,0,0,0,0,0,0,0,0,0,0,0,0,0,0,0,0,0,0,0,0,0,0,0,0,0,0,0,0,0,0,0,0,0,0,0,0,0,0,0,0,0,0,0,0,0,0,1.1987,1.1988,0,1.2028,1.2029,1.2029,1.1985,1.1983,1.1981,1.198,1.2024,1.2026,1.2029,0,0,0,0,0,0,0,0,0,0,0,0,0,1.1875,1.1877,1.1987,1.1988,1.1988,1.2028,1.2029,1.2029,1.1985,1.1983,1.1981,1.1979,1.2023,1.2026,1.2029,0,0,0,0,0,0,0,0,0,0,0,0,0,1.1921,1.1878,1.1987,1.1971,1.197,1.2028,1.2029,1.2029,1.1985,1.1983,1.198,1.1978,1.2022,1.2026,1.203,1.2106,0,0,1.2043,1.2044,0,0,0,0,0,0,0,0,1.1918,1.1925,1.1973,1.1972,1.1971,1.1999,1.2005,1.2055,1.1986,1.198,1.198,1.1977,1.2018,1.2022,1.2035,1.2108,1.211,1.2043,1.2045,1.2047,1.2048,0,0,0,0,0,0,0,1.1915,1.1923,1.2004,1.1974,1.1973,1.1963,1.1967,1.2014,1.2013,1.198,1.1977,1.1982,1.2017,1.2031,1.2036,1.2111,1.2043,1.2046,1.2049,1.2051,1.2251,1.2254,0,0,0,0,0,0,1.1913,1.192,1.2002,1.2005,1.1938,1.1967,1.1971,1.1993,1.2012,1.2012,1.1984,1.198,1.2026,1.2031,1.2037,1.213,1.2047,1.2051,1.2053,1.2248,1.2252,1.2255,0,0,0,0,0,0,1.1911,1.1921,1.2001,1.1962,1.1971,1.1972,1.1996,1.1995,1.2009,1.2015,1.2015,1.2,1.2024,1.2032,1.209,1.2131,1.2053,1.2057,1.2245,1.2249,1.2253,1.2315,0,0,0,0,0,0,1.1908,1.192,1.1949,1.1963,1.1973,1.2052,1.1998,1.1997,1.2016,1.2011,1.2029,1.203,1.2022,1.2084,1.2094,1.2135,1.206,1.2241,1.2247,1.2252,1.2309,1.2321,1.233,0,0,0,0,0,1.1904,1.1964,1.195,1.196,1.2009,1.2054,1.206,1.205,1.202,1.2049,1.2053,1.2029,1.2124,1.209,1.2101,1.2144,1.2239,1.2245,1.2252,1.2304,1.2318,1.233,0,0,0,0,0,0,1.1956,1.1966,1.195,1.2017,1.2035,1.2047,1.2083,1.2065,1.2092,1.2086,1.2073,1.2077,1.214,1.2147,1.2109,1.222,1.2177,1.2186,1.2213,1.2226,1.2237,1.2235,1.2063,0,0,0,0,0,1.1975,1.201,1.2017,1.2075,1.2085,1.2083,1.2102,1.2092,1.2111,1.2118,1.2126,1.2146,1.2181,1.2204,1.2235,1.2309,1.2314,1.2344,1.2355,1.2364,1.2372,1.2414,1.2429,1.2276,1.2276,1.2276,0,0,1.2015,1.2024,1.2048,1.2086,1.2099,1.2137,1.2089,1.2131,1.216,1.2125,1.2181,1.2188,1.2209,1.2276,1.2306,1.2284,1.2415,1.2372,1.2379,1.2383,1.2422,1.2437,1.245,1.228,1.228,1.2279,0,0,1.2107,1.2117,1.2168,1.2182,1.2202,1.22,1.2212,1.2226,1.223,1.2285,1.2261,1.2295,1.2354,1.237,1.2387,1.2487,1.2467,1.2497,1.2554,1.2595,1.2607,1.2618,1.2655,1.2669,1.2505,1.2506,1.2506,0,1.2155,1.221,1.2196,1.224,1.2259,1.2228,1.228,1.2295,1.2324,1.2338,1.2313,1.2388,1.24,1.2472,1.2496,1.2509,1.2525,1.2496,1.2606,1.2617,1.2626,1.2662,1.2676,1.2509,1.2509,1.2508,1.2508,0,1.2269,1.2308,1.2346,1.2375,1.2398,1.2446,1.244,1.2465,1.2453,1.2455,1.2513,1.2526,1.2561,1.2577,1.2566,1.2648,1.2634,1.2608,1.2564,1.2645,1.2679,1.2692,1.2515,1.2513,1.2512,1.2511,0,0,1.2396,1.2417,1.2431,1.2445,1.2465,1.2496,1.2543,1.2576,1.2599,1.262,1.2661,1.2712,1.2688,1.2707,1.2697,1.2733,1.2814,1.2703,1.2703,1.2725,1.2908,1.2929,1.2945,1.2801,1.2803,1.2805,1.2907,0,1.249,1.2571,1.2561,1.2639,1.2676,1.2648,1.2689,1.2707,1.2709,1.2742,1.2745,1.2782,1.2747,1.2758,1.2792,1.2797,1.2851,1.2789,1.284,1.2842,1.2838,1.2962,1.2984,1.308,1.292,1.2922,1.2923,0,1.2612,1.2638,1.272,1.2736,1.2751,1.2788,1.2819,1.285,1.287,1.2869,1.289,1.2875,1.2924,1.2878,1.2946,1.2905,1.2925,1.2931,1.2934,1.294,1.2889,1.2974,1.311,1.3125,1.2944,1.2942,1.2941,0,1.2699,1.2755,1.2811,1.2824,1.2843,1.287,1.2879,1.2897,1.2918,1.2945,1.2959,1.2992,1.301,1.3036,1.3031,1.2998,1.3102,1.3055,1.3104,1.3105,1.3129,1.3128,1.3272,1.3139,1.3138,1.3138,1.3138,0,1.2808,1.286,1.2851,1.2886,1.2944,1.2932,1.299,1.2996,1.3011,1.3048,1.3025,1.3061,1.305,1.3086,1.3082,1.3141,1.3148,1.3151,1.3149,1.3154,1.3154,1.3169,1.3163,1.3142,1.3141,1.314,1.314,0,1.2916,1.2912,1.2972,1.2985,1.299,1.3032,1.3044,1.3078,1.3079,1.3126,1.3136,1.3138,1.3178,1.3175,1.322,1.3218,1.3291,1.3281,1.3284,1.3283,1.3334,1.333,1.3494,1.3516,1.3366,1.3367,1.3368,0,1.2986,1.3026,1.3043,1.3066,1.3077,1.3114,1.3136,1.3125,1.3149,1.3175,1.3206,1.3245,1.3275,1.3341,1.3347,1.3383,1.3375,1.343,1.338,1.3384,1.3378,1.3377,1.3382,1.344,1.3442,1.3443,1.3444,0,1.3113,1.3109,1.314,1.3172,1.3199,1.3223,1.3246,1.3266,1.3258,1.3286,1.3327,1.335,1.3397,1.3436,1.347,1.3481,1.3463,1.346,1.3473,1.348,1.3481,1.3484,1.3314,1.3456,1.3455,1.3454,1.3454,1.3453,1.3206,1.324,1.3258,1.3295,1.331,1.3332,1.3365,1.3369,1.3403,1.344,1.3431,1.3478,1.3499,1.3542,1.3556,1.3594,1.3574,1.3593,1.3599,1.3604,1.3611,1.3473,1.3599,1.3599,1.3599,1.3598,1.3598,0,1.3333,1.3343,1.3377,1.3409,1.3438,1.3416,1.344,1.3467,1.3508,1.3528,1.3558,1.3606,1.3644,1.3653,1.369,1.3718,1.3711,1.3729,1.3728,1.3731,1.3626,1.3611,1.3734,1.3734,1.3734,1.3734,1.3734,1.3734,1.3403,1.346,1.3459,1.3525,1.3534,1.358,1.3596,1.3616,1.3632,1.3687,1.3718,1.3723,1.3739,1.3777,1.3812,1.3814,1.383,1.3851,1.385,1.3752,1.3738,1.3725,1.3712,1.3854,1.3854,1.3953,1.3954,1.3954]}]]